This is the latest recevied weather packets stored in our database for station/object DK4SDR-10. If no packets are shown the sender has not sent any weather packets the latest 10 day(s).
| Time | Temp. | Humidity | Pressure | Rain* | Wind** | Luminosity | Snow |
|---|---|---|---|---|---|---|---|
| 1777919610 | 23.89° C | 36% | 1012.4 hPa | - | - | - | - |
| 1777918710 | 24.44° C | 36% | 1012.3 hPa | - | - | - | - |
| 1777917810 | 25° C | 35% | 1012.1 hPa | - | - | - | - |
| 1777916910 | 25.56° C | 33% | 1012.1 hPa | - | - | - | - |
| 1777916010 | 26.11° C | 33% | 1012.2 hPa | - | - | - | - |
| 1777915110 | 26.11° C | 32% | 1012.2 hPa | - | - | - | - |
| 1777914210 | 26.67° C | 32% | 1012.1 hPa | - | - | - | - |
| 1777913310 | 27.22° C | 32% | 1012.3 hPa | - | - | - | - |
| 1777912410 | 27.22° C | 30% | 1012.3 hPa | - | - | - | - |
| 1777911510 | 27.22° C | 30% | 1012.5 hPa | - | - | - | - |
| 1777910610 | 27.22° C | 31% | 1012.4 hPa | - | - | - | - |
| 1777909710 | 27.22° C | 30% | 1012.3 hPa | - | - | - | - |
| 1777908810 | 26.67° C | 30% | 1012.4 hPa | - | - | - | - |
| 1777907910 | 26.67° C | 30% | 1012.5 hPa | - | - | - | - |
| 1777907010 | 27.22° C | 30% | 1012.5 hPa | - | - | - | - |
| 1777906110 | 27.78° C | 29% | 1012.4 hPa | - | - | - | - |
| 1777905210 | 28.33° C | 27% | 1013 hPa | - | - | - | - |
| 1777904310 | 28.89° C | 27% | 1013.2 hPa | - | - | - | - |
| 1777903410 | 28.89° C | 28% | 1013.2 hPa | - | - | - | - |
| 1777902509 | 29.44° C | 26% | 1013.3 hPa | - | - | - | - |
| 1777901609 | 30° C | 25% | 1013.4 hPa | - | - | - | - |
| 1777900709 | 30.56° C | 24% | 1013.4 hPa | - | - | - | - |
| 1777899809 | 31.11° C | 24% | 1013.5 hPa | - | - | - | - |
| 1777898908 | 31.67° C | 24% | 1013.5 hPa | - | - | - | - |
| 1777898008 | 31.11° C | 24% | 1013.6 hPa | - | - | - | - |
* Rain since midnight (hover to see other rain measurements)
** Current wind speed in m/s (hover to see current wind gust speed)